FW8458 Weather Reports


time (UTC)temp
F
wind
direction
speed
knots
gust
knots
rain 1hr
in
rain 24hr
in
rain mn
in
humidity
%
barometer
mb
20260507020525 45 0.0 0.0 0.00 0.00 0.00 98
20260507015524 45 0.0 0.0 0.00 0.00 0.00 98
20260507014524 45 0.0 0.0 0.00 0.00 0.00 98
20260507013526 46 17 0.0 0.9 0.00 0.00 0.00 97
20260507012524 46 0.0 0.0 0.00 0.00 0.00 97
20260507011525 46 305 0.0 0.9 0.00 0.00 0.00 96
20260507010525 46 0.0 0.0 0.00 0.00 0.00 96
20260507005525 46 0.0 0.0 0.00 0.00 0.00 95
20260507004546 46 357 0.0 0.9 0.00 0.00 0.00 95
20260507003525 46 305 0.0 1.7 0.00 0.00 0.00 95
20260507002527 46 313 1.7 3.5 0.00 0.00 0.00 95
20260507001527 46 0.0 0.0 0.00 0.00 0.00 95
20260507000526 46 0.0 0.0 0.00 0.00 0.00 95
20260506235526 46 306 0.9 2.6 0.00 0.00 0.00 95
20260506234527 46 298 0.9 2.6 0.00 0.00 0.00 95
20260506233607 46 0.0 0.0 0.00 0.00 0.00 95
20260506232528 46 316 0.0 2.6 0.00 0.00 0.00 94
20260506231548 46 293 0.9 1.7 0.00 0.00 0.00 95
20260506230549 46 291 0.9 2.6 0.00 0.00 0.00 95
20260506225527 47 294 0.9 3.5 0.00 0.00 0.00 95
20260506224523 47 294 1.7 6.1 0.00 0.00 0.00 95
20260506223530 47 277 2.6 4.3 0.00 0.00 0.00 95
20260506222518 47 296 2.6 5.2 0.00 0.00 0.00 95
20260506221518 48 293 2.6 5.2 0.00 0.00 0.00 93
20260506220529 48 331 0.9 3.5 0.00 0.00 0.00 93
20260506215528 48 333 1.7 4.3 0.00 0.00 0.00 94
20260506214523 48 332 1.7 4.3 0.00 0.00 0.00 94
20260506213530 48 314 2.6 4.3 0.00 0.00 0.00 94
20260506212518 48 313 3.5 5.2 0.00 0.00 0.00 95
20260506211518 48 313 2.6 6.1 0.00 0.00 0.00 97
20260506210528 48 339 0.9 2.6 0.00 0.00 0.00 97
20260506205518 48 326 2.6 6.1 0.00 0.00 0.00 97
20260506204519 48 333 2.6 5.2 0.00 0.00 0.00 98
20260506203539 49 322 2.6 5.2 0.00 0.00 0.00 98
20260506202530 49 318 0.9 2.6 0.00 0.00 0.00 98
20260506201529 49 358 0.9 2.6 0.00 0.00 0.00 98
20260506200551 49 349 0.9 1.7 0.00 0.00 0.00 98
20260506195529 49 328 0.9 3.5 0.00 0.00 0.00 98
20260506194540 49 313 1.7 3.5 0.00 0.00 0.00 98
20260506193550 49 335 0.9 3.5 0.00 0.00 0.00 98
20260506192533 49 0 0.0 0.0 0.00 0.00 0.00 97
20260506191530 49 323 0.9 1.7 0.00 0.00 0.00 97
20260506190531 49 322 1.7 4.3 0.00 0.00 0.00 96
20260506185519 49 336 1.7 4.3 0.00 0.00 0.00 96
20260506184519 49 317 0.9 2.6 0.00 0.00 0.00 96
20260506183517 49 3 1.7 4.3 0.00 0.00 0.00 96
20260506182521 50 346 1.7 5.2 0.00 0.00 0.00 97
20260506181521 51 320 3.5 7.0 0.00 0.00 0.00 97
20260506180522 52 291 2.6 6.1 0.00 0.00 0.00 97
20260506175521 54 302 3.5 7.8 0.00 0.00 0.00 96
20260506174522 57 309 3.5 7.8 0.00 0.00 0.00 96
20260506173539 58 311 0.9 2.6 0.00 0.00 0.00 97
20260506172519 58 305 0.0 0.9 0.00 0.00 0.00 96
20260506171519 58 254 0.9 2.6 0.00 0.00 0.00 96
20260506170519 58 11 0.9 2.6 0.00 0.00 0.00 96
20260506165519 58 241 0.0 2.6 0.00 0.00 0.00 96
20260506164519 58 240 0.9 2.6 0.00 0.00 0.00 97
20260506163519 58 0.0 0.0 0.00 0.00 0.00 97
20260506162519 58 224 0.9 2.6 0.00 0.00 0.00 97
20260506161519 57 0.0 0.0 0.00 0.00 0.00 97
20260506160521 57 287 0.9 1.7 0.00 0.00 0.00 97
20260506155520 57 0.0 0.0 0.00 0.00 0.00 96
20260506154520 57 0.0 0.0 0.00 0.00 0.00 96
20260506153521 57 0.0 0.0 0.00 0.00 0.00 96
20260506152520 57 0.0 0.0 0.00 0.00 0.00 96
20260506151522 57 252 0.9 2.6 0.00 0.00 0.00 95
20260506150521 57 0.0 0.0 0.00 0.00 0.00 96
20260506145521 57 199 0.9 2.6 0.00 0.00 0.00 96
20260506144521 57 87 0.9 2.6 0.00 0.00 0.00 97
20260506143521 57 178 0.9 2.6 0.00 0.00 0.00 99
20260506142522 57 0.0 0.0 0.00 0.00 0.00 100
20260506141522 56 0.0 0.0 0.00 0.00 0.00 100
20260506140522 56 34 0.0 0.9 0.00 0.00 0.00 99
20260506135522 55 29 0.9 1.7 0.00 0.00 0.00 99
20260506134522 54 42 0.9 1.7 0.00 0.00 0.00 99
20260506133522 54 24 0.0 0.9 0.00 0.00 0.00 99
20260506132522 54 0.0 0.0 0.00 0.00 0.00 99
20260506131523 54 0.0 0.0 0.00 0.00 0.00 99
20260506130523 53 7 0.9 1.7 0.00 0.00 0.00 99
20260506125523 52 0.0 0.0 0.00 0.00 0.00 100
20260506124523 52 0.0 0.0 0.00 0.00 0.00 100
20260506123543 52 342 0.0 0.9 0.00 0.00 0.00 100
20260506122523 51 0.0 0.0 0.00 0.00 0.00 100
20260506121523 52 93 0.9 2.6 0.00 0.00 0.00 100
20260506120524 52 67 0.0 1.7 0.00 0.00 0.00 100
20260506115544 52 0.0 0.0 0.00 0.00 0.00 99
20260506114524 51 0.0 0.0 0.00 0.00 0.00 99
20260506113524 51 0.0 0.0 0.00 0.00 0.00 99
20260506112525 51 300 0.0 1.7 0.00 0.00 0.00 99
20260506111519 51 0.0 0.0 0.00 0.00 0.00 99
20260506110540 51 0.0 0.0 0.00 0.00 0.00 99
20260506105519 51 65 0.0 0.9 0.00 0.00 0.00 99
20260506104539 51 0.0 0.0 0.00 0.00 0.00 98
20260506103519 51 338 0.0 0.9 0.00 0.00 0.00 98
20260506102520 51 0.0 0.0 0.00 0.00 0.00 98
20260506101520 51 38 0.0 0.9 0.00 0.00 0.00 98
20260506100520 51 0.0 0.0 0.00 0.00 0.00 97
20260506095517 51 0.0 0.0 0.00 0.00 0.00 97
20260506094539 51 0.0 0.0 0.00 0.00 0.00 96
20260506093542 51 58 0.0 0.9 0.00 0.00 0.00 96
20260506092521 51 0.0 0.0 0.00 0.00 0.00 95
20260506091518 51 0.0 0.0 0.00 0.00 0.00 95
20260506090518 52 0.0 0.0 0.00 0.00 0.00 94
20260506085558 52 0.0 0.0 0.00 0.00 0.00 93
20260506084518 52 77 0.0 0.9 0.00 0.00 0.00 92
20260506083521 52 0.0 0.0 0.00 0.00 0.00 91
20260506082519 52 288 0.0 1.7 0.00 0.00 0.00 91
20260506081519 52 169 0.0 1.7 0.00 0.00 0.00 91
20260506080520 52 0.0 0.0 0.00 0.00 0.00 90
20260506072520 52 108 0.0 1.7 0.00 0.00 0.00 92
20260506071521 52 66 0.0 2.6 0.00 0.00 0.00 93
20260506070540 52 0.0 0.0 0.00 0.00 0.00 94
20260506061540 52 0.0 0.0 0.00 0.00 0.00 96
20260506060519 52 5 0.0 0.9 0.00 0.00 0.00 96
20260506050541 52 45 0.0 0.0 0.00 0.00 0.00 93
20260506044517 53 0.0 0.0 0.00 0.00 0.00 92
20260506043520 53 0.0 0.0 0.00 0.00 0.00 91
20260506042520 54 311 0.0 1.7 0.00 0.00 0.00 90
20260506041520 54 101 0.0 1.7 0.00 0.00 0.00 89
20260506040518 55 62 0.0 0.9 0.00 0.00 0.00 87
20260506035518 55 0.0 0.0 0.00 0.00 0.00 86
20260506034539 55 353 0.0 0.0 0.00 0.00 0.00 85
20260506033542 56 307 0.9 4.3 0.00 0.00 0.00 85
20260506032519 56 326 0.9 4.3 0.00 0.00 0.00 88
20260506031518 57 44 0.0 1.7 0.00 0.00 0.00 88
20260506030519 57 348 0.0 2.6 0.00 0.00 0.00 87
20260506025519 57 162 0.0 2.6 0.00 0.00 0.00 88
20260506024520 58 314 0.9 3.5 0.00 0.00 0.00 88
20260506023519 58 346 1.7 5.2 0.00 0.00 0.00 88
20260506022519 59 335 0.9 4.3 0.00 0.00 0.00 89
20260506021520 60 321 0.9 3.5 0.00 0.00 0.00 90